This is the latest recevied weather packets stored in our database for station/object S51UL-6. If no packets are shown the sender has not sent any weather packets the latest 10 day(s).
| Time | Temp. | Humidity | Pressure | Rain* | Wind** | Luminosity | Snow |
|---|---|---|---|---|---|---|---|
| 1777313135 | 14.44° C | 50% | 1019.4 hPa | 0 mm | - | - | - |
| 1777312837 | 14.44° C | 49% | 1019.3 hPa | 0 mm | - | - | - |
| 1777312237 | 15.56° C | 47% | 1019.3 hPa | 0 mm | - | - | - |
| 1777311935 | 15.56° C | 46% | 1019.2 hPa | 0 mm | - | - | - |
| 1777311637 | 16.11° C | 44% | 1019 hPa | 0 mm | - | - | - |
| 1777311337 | 16.11° C | 44% | 1019.2 hPa | 0 mm | - | - | - |
| 1777311037 | 16.67° C | 44% | 1019.1 hPa | 0 mm | - | - | - |
| 1777310438 | 16.67° C | 43% | 1019 hPa | 0 mm | - | - | - |
| 1777310137 | 17.22° C | 43% | 1019.1 hPa | 0 mm | - | - | - |
| 1777309837 | 17.22° C | 43% | 1018.9 hPa | 0 mm | - | - | - |
| 1777309538 | 17.78° C | 42% | 1018.8 hPa | 0 mm | - | - | - |
| 1777309238 | 17.78° C | 42% | 1019 hPa | 0 mm | - | - | - |
| 1777308338 | 18.33° C | 41% | 1018.9 hPa | 0 mm | - | - | - |
| 1777308038 | 18.33° C | 41% | 1018.9 hPa | 0 mm | - | - | - |
| 1777307740 | 18.33° C | 41% | 1018.9 hPa | 0 mm | - | - | - |
| 1777307438 | 18.33° C | 41% | 1018.9 hPa | 0 mm | - | - | - |
| 1777306538 | 18.89° C | 40% | 1018.9 hPa | 0 mm | - | - | - |
| 1777306238 | 18.89° C | 40% | 1019 hPa | 0 mm | - | - | - |
| 1777305938 | 18.89° C | 40% | 1019 hPa | 0 mm | - | - | - |
| 1777305638 | 18.89° C | 40% | 1019 hPa | 0 mm | - | - | - |
| 1777305338 | 18.89° C | 40% | 1018.9 hPa | 0 mm | - | - | - |
| 1777305038 | 19.44° C | 40% | 1019 hPa | 0 mm | - | - | - |
| 1777304438 | 19.44° C | 40% | 1019 hPa | 0 mm | - | - | - |
| 1777304138 | 19.44° C | 40% | 1019.2 hPa | 0 mm | - | - | - |
| 1777303540 | 20° C | 39% | 1019.2 hPa | 0 mm | - | - | - |
* Rain latest hour (hover to see other rain measurements)
** Current wind speed in m/s (hover to see current wind gust speed)